User: anonymous   Login
Location: ?????????
(55.6553°N, 38.9075°E)
Time: 07:51:52
(UTC+00:00)
Language:

SJ-6F - Orbit

View from above orbital plane
View from above orbital plane
View from above satellite
View from above satellite

Ground track
Ground track

The orbit data is extracted from the following two-line orbital elements,

1 33409U 08053B   19344.09727343  .00000433  00000-0  44864-4 0  9991
2 33409  97.7274 319.3541 0017505  64.7138 295.5909 14.94929099606333
Epoch (UTC): 10 December 2019 02:20:04
Eccentricity: 0.0017505
inclination: 97.7274°
perigee height: 570 km
apogee height: 595 km
right ascension of ascending node: 319.3541°
argument of perigee: 64.7138°
revolutions per day: 14.94929099
mean anomaly at epoch: 295.5909°
orbit number at epoch: 60633

The dashed part of the orbit path shows where the satellite is in the earth's shadow,  

DLR